Terminal Aerodrome Forecast
Issued by NWS Hastings, NE

Home | Current Version | Previous Version | Text Only | Print | Product List | Glossary On
Versions: 1 2 3 4 5 6 7 8 9 10 11 12 13 14 15 16 17 18 19 20
000
FTUS45 KGID 250533
TAFEAR
TAF
KEAR 250533Z 2506/2606 13013KT P6SM OVC120
     FM250700 27015G25KT P6SM VCTS OVC050CB
     FM251200 11009KT P6SM SCT050 BKN080
     FM251600 16008KT P6SM SCT080
     FM252100 23008KT P6SM SCT040
     FM260200 VRB06KT P6SM SCT080
      AMD LTD TO CLD VIS AND WIND=

USA.gov is the U.S. government's official web portal to all federal, state and local government web resources and services.